Location: Newark
(34.3481°N, 134.0494°E)
Time: 05:48:03
(UTC+00:00)

Vanguard 2 - Visible Passes

Search period start: 22 January 2020 00:00
Search period end: 01 February 2020 00:00
Orbit: 553 x 2938 km, 32.9° (Epoch: 21 January)

Date Brightness Start Highest point End Pass type
(mag) Time Alt. Az. Time Alt. Az. Time Alt. Az.
22 Jan 9.7 09:13:41 10° WSW 09:15:48 14° SSW 09:17:51 10° S visible
25 Jan 12.5 21:25:30 10° SSE 21:30:26 12° SE 21:35:04 10° ESE visible
26 Jan 12.3 21:38:26 10° S 21:48:27 18° SE 21:57:12 10° ESE visible
29 Jan 12.2 20:22:18 10° SSE 20:31:01 16° SE 20:39:17 10° ESE visible
30 Jan 12.0 20:36:50 10° S 20:48:49 22° SE 20:59:57 10° E visible
31 Jan 11.9 20:52:36 10° SSW 21:06:37 30° SE 21:19:25 10° E visible
